Погода в Атбасаре

Погода в Атбасаре : погода сейчас, прогноз погоды и архив. Всё, что Вы хотите узнать о погоде в Атбасаре!

Хотите узнать прогноз погоды в Атбасаре? Тогда Вам сюда: Погода в Атбасаре

Поиск расширенной информации на нашем сайте:

Другие новости

Новости СМИ2

Главная страница сайта

Новости сайта

03.07.2017

Напоминаем, что на нашем специализированном сайте Метеоцентр.Азия вы можете получить высокодетализированные автоматические прогнозы погоды по пунктам России, СНГ и мира в авиационном формате (включающие направление и скорость ветра, видимость, явления погоды, количество и форму облачности, нижнюю и верхнюю границу облачности).


Погода в Атбасаре - сегодня

Время (UTC), дата Ветер
(°,м/с) 
Видим.   Явления Облачность Т
(°С)
Тd
(°С)
f(%) Тe
(°С)
Pmin
(гПа)
dP
(гПа)
Po
(мм)
O2
(г/м3)
Тmin Tmax R s Состояние
почвы
21 19.06.18 320 (СЗ) н/о    ясно 
+11.6 +6.4 70 +11  1005.3  0.2  727  280           
00 20.06.18 тихо ()   20000 м    3/3 1000 м 
[Sc]
+10.3 +6.3 76 +10  1006.3  0.8  728  282           
06 20.06.18 230 (ЮЗ) 10  20000 м    6/6 1500 м 
[Cu Sc]
+23 +8.6 40 +23  1005.3  0.1  728  269  +9.4         
09 20.06.18 270 (З) 20000 м  в посл. час ливневой дождь  9/9 600 м кучево-дожд. 
[Cb cap]
+25.5 +8 33 +26  1003.4  -1.5  727  267           
21 20.06.18 290 (З) н/о    8/0 средняя, верхняя 
[Ac lent|Ci fib]
+13.8 +8.9 72 +14  1005.8  -0.3  728  278           
00 21.06.18 230 (ЮЗ) 20000 м    4/0 средняя, верхняя 
[Ac trans|Ci fib]
+13.4 +7.8 69 +12  1005.4  -0.4  727  278           
06 21.06.18 250 (З) 10  20000 м    8/3 600 м верхняя 
[Cu med, cong|Ci fib]
+27.7 +10.4 34 +30  1001.8  -1.5  726  264  +12.7         
09 21.06.18 270 (З) 10  20000 м    9/5 1000 м средняя, верхняя 
[Cu med, cong|Ac As|Ci]
+30.7 +0.8 15 +31  999.4  -2.1  725  262           
12 21.06.18 290 (З) 20000 м    10/10 1000 м 
[Sc]
+24.3 +8.5 37 +24  1001.1  725  267           
21 21.06.18 230 (ЮЗ) н/о    6/6 1000 м 
[Sc]
+15.3 +11.5 78 +19  1001.2  -0.7  725  274           
00 22.06.18 230 (ЮЗ) 20000 м    9/9 1000 м 
[Sc]
+13.9 +11.1 83 +17  1000  -1.3  724  275           
21 22.06.18 290 (З) н/о    5/0 средняя, верхняя 
[Ac trans|Ci fib]
+11.4 +4.4 62 +12  1002.2  -0.3  725  280           
00 23.06.18 тихо ()   20000 м    8/0 средняя, верхняя 
[Ac cast|Ci fib]
+11 +5.7 70 +11  1002.9  0.7  725  280           
06 23.06.18 270 (З) 20000 м    9/9 600 м кучево-дожд. 
[Cb cap]
+21.6 +9.7 47 +23  1002  726  269  +9.6         
09 23.06.18 270 (З) 20000 м    9/9 1000 м 
[Cu Sc]
+21.3 +9.3 46 +22  1002.4  0.3  726  270           
12 23.06.18 270 (З) 20000 м    8/8 1000 м 
[Cu med, cong]
+23.9 +7.9 36 +24  1001.8  -0.3  726  268           
15 23.06.18 270 (З) 20000 м    8/8 1000 м 
[Cu med, cong]
+20.5 +8.7 47 +21  1002.9  0.7  726  271    +24       
18 23.06.18 270 (З) н/о    4/0 средняя 
[Ac und]
+14.6 +8.6 67 +15  1004.6  727  277    +24       
21 23.06.18 270 (З) н/о    3/0 средняя 
[Ac lent]
+13.4 +8.7 73 +14  1004.4  -0.4  727  278           
00 24.06.18 270 (З) 20000 м    3/0 средняя 
[Ac lent]
+11.2 +6.6 73 +10  1005.1  0.4  727  280           
06 24.06.18 320 (СЗ) 20000 м    8/8 1500 м 
[Cu med, cong]
+22.4 +9.7 44 +24  1004.3  -0.2  727  269  +9.5         
09 24.06.18 320 (СЗ) 20000 м  {ливн. осадки}  9/9 600 м кучево-дожд. 
[Cb cap]
+23.8 +8.7 38 +24  1003.6  -0.5  727  268           
21 24.06.18 тихо ()   н/о    3/3 1000 м 
[Sc]
+10.9 +9.9 94 +12  1009  0.1  730  281           
06 25.06.18 320 (СЗ) 20000 м    9/5 1000 м кучево-дожд., верхняя 
[Cb cap|Ci ing]
+19.8 +13.2 66 +26  1008.7  -0.1  730  272  +10.2         
09 25.06.18 340 (С) 20000 м  {ливн. осадки}  8/6 1000 м кучево-дожд., верхняя 
[Cb calv|Ci ing]
+20.5 +12.4 60 +26  1008.2  -0.4  730  271           
Время (UTC), дата Ветер
(°,м/с) 
Видим.   Явления Облачность Т
(°С)
Тd
(°С)
f(%) Тe
(°С)
Pmin
(гПа)
dP
(гПа)
Po
(мм)
O2
(г/м3)
Тmin Tmax R s Состояние
почвы

Для получения пояснительной информации подведите курсор к названию столбца.

ПОГОДА в Атбасаре - архив

Всё, что Вы хотите узнать о погоде в Атбасаре - удобно и подробно!

Выберите нужную дату (начиная с 1 января 2015* года) и нажмите кнопку "Найти".
Будут отображены архивные сводки погоды по пункту Атбасар, начиная с указанной даты.


Отображать данные в формате CSV (для использования в таблицах Excel)


Внимание! Наш архив погоды предназначен исключительно для личного некоммерческого использования в познавательных целях. Если Вам необходимы официальные справки о состоянии погоды (для производственных, юридических, коммерческих и т.п. целей), обращайтесь в органы Росгидромета.

*Примечание: данная дата относится к архиву по метеостанциям СССР (Россия, СНГ, Балтия).
Архив по метеостанциям Зарубежной Европы и Азии (кроме Китая) хранится 10 дней, по другим регионам земного шара (Китай, Африка, Америка, Австралия, Океания) - 1 день.

Атбасар - район местоположения метеостанции


Название, широта, долгота, высота метеостанции:
Атбасар 51.8°ш. 68.4°д. 304 м над ур. моря [Казахстан]

Дополнительная информация

В oтличие oт бoльшинства пoгoдных сайтoв мы публикуем пoдрoбную метеoинфoрмацию в детальнoм прoфессиoнальнoм фoрмате.

Характеристики температуры и влажнoсти вoздуха измеряются на высoте 2 м в тени вдали oт зданий и деревьев.
Скoрoсть ветра измеряется на высoте 10 м (на урoвне рoста челoвека скoрoсть ветра ниже в 1.5-2 раза). Если метеoстанция нахoдится в гoрoде или в лесу, тo скoрoсть ветра занижена на 2-4 м/с пo сравнению с oткрытым местoм. Скoрoсть ветра над акватoриями крупных рек и oзёр, а также на вершинах хoлмoв на 2-5 м/с выше, чем в oбычных услoвиях.
Атмoсфернoе давление в разных тoчках местнoсти мoжет значительнo oтличаться oт давления на метеoстанции, в зависимoсти oт услoвий рельефа (при пoдъёме на 10 м давление пoнижается примернo на 1 мм рт.ст.).